Vineland (AU8), Ontario

12:15 AM EDT on May 26, 2017 (GMT -0400)
Vineland (AU8)

Weather History for CXVN - September, 2012

Change the Weather History Date:

Sunday, September 16, 2012

  Actual Average (CYSN) Record (CYSN)
Temperature  
Mean Temperature 61 °F -  
Max Temperature 75 °F 70 °F 82 °F (2015)
Min Temperature 47 °F 54 °F 42 °F (2007)
Degree Days  
Heating Degree Days 4    
Growing Degree Days 11 (Base 50)    
Moisture  
Dew Point 50 °F    
Average Humidity 66    
Maximum Humidity 87    
Minimum Humidity 47    
Precipitation  
Precipitation 0.01 in - - ()
Sea Level Pressure  
Sea Level Pressure 30.06 in    
Wind  
Wind Speed 5 mph ()    
Max Wind Speed 13 mph    
Max Gust Speed 18 mph    
Averages and records for this station are not official NWS values.
T = Trace of Precipitation, MM = Missing Value Source: Averaged Metar Reports

Daily Weather History Graph

Daily Weather History Graph

Search for Another Location

Airport or City:

Trip Planner

Search our weather history database for the weather conditions in past years. The results will help you decide how hot, cold, wet, or windy it might be!

Date:

Astronomy

Sep. 16, 2012 Rise Set
Actual Time 6:58 AM EDT 7:24 PM EDT
Civil Twilight 6:30 AM EDT 7:53 PM EDT
Nautical Twilight 5:56 AM EDT 8:27 PM EDT
Astronomical Twilight 5:21 AM EDT 9:01 PM EDT
Moon 7:38 AM EDT (9/16) 7:25 PM EDT (9/16)
Length of Visible Light 13h 23m
Length of Day
12h 26m
New Moon, 0% of the Moon is Illuminated
Sep 16
New Moon
Sep 22
First Quarter
Sep 29
Full
Oct 8
Last Quarter
Oct 15
New

Hourly Weather History & Observations

Time (EDT) Temp. Dew Point Humidity Pressure Visibility Wind Dir Wind Speed Gust Speed Precip Events Conditions
12:00 AM 58.6 °F 47.1 °F 66% 30.14 in - NNW 5.8 mph - N/A   Unknown
1:00 AM 53.6 °F 46.9 °F 78% 30.13 in - WSW 3.5 mph - N/A   Unknown
2:00 AM 51 °F 46 °F 76% 30.14 in - West 5.8 mph - -  
2:00 AM 51.4 °F 45.7 °F 81% 30.14 in - West 5.8 mph - N/A   Unknown
3:00 AM 50.5 °F 45.1 °F 82% 30.13 in - West 6.9 mph - N/A   Unknown
4:00 AM 49.1 °F 44.4 °F 84% 30.13 in - WSW 3.5 mph - N/A   Unknown
5:00 AM 48.7 °F 44.4 °F 85% 30.12 in - SW 3.5 mph - N/A   Unknown
6:00 AM 48.9 °F 44.8 °F 86% 30.12 in - WSW 4.6 mph - N/A   Unknown
7:00 AM 48.4 °F 44.8 °F 87% 30.12 in - SW 4.6 mph - N/A   Unknown
8:00 AM 51 °F 46 °F 78% 30.12 in - SSW 3.5 mph - -  
8:00 AM 50.9 °F 46.2 °F 84% 30.12 in - SSW 3.5 mph - N/A   Unknown
9:00 AM 58.1 °F 49.1 °F 72% 30.12 in - SW 2.3 mph - 0.01 in   Unknown
10:00 AM 60.8 °F 43.2 °F 52% 30.12 in - SSW 3.5 mph - N/A   Unknown
11:00 AM 65.3 °F 45.1 °F 48% 30.09 in - SSW 5.8 mph - N/A   Unknown
12:00 PM 69.4 °F 52.0 °F 54% 30.07 in - WSW 9.2 mph - N/A   Unknown
1:00 PM 73.8 °F 55.2 °F 52% 30.04 in - WSW 6.9 mph - N/A   Unknown
2:00 PM 71 °F 55 °F 47% 30.03 in - NE 4.6 mph - -  
2:00 PM 71.1 °F 54.9 °F 56% 30.03 in - NE 4.6 mph - N/A   Unknown
3:00 PM 71.4 °F 55.4 °F 57% 30.01 in - ENE 5.8 mph - N/A   Unknown
4:00 PM 72.1 °F 55.9 °F 57% 29.99 in - ENE 4.6 mph - N/A   Unknown
5:00 PM 72.3 °F 55.4 °F 55% 29.98 in - SW 12.7 mph - N/A   Unknown
6:00 PM 71.8 °F 54.1 °F 54% 29.98 in - SW 11.5 mph 18.4 mph N/A   Unknown
7:00 PM 68.5 °F 54.0 °F 60% 29.99 in - SW 11.5 mph - N/A   Unknown
8:00 PM 66 °F 53 °F 54% 29.98 in - SW 9.2 mph - -  
8:00 PM 66.0 °F 53.4 °F 64% 29.98 in - SW 9.2 mph - N/A   Unknown
9:00 PM 65.8 °F 52.9 °F 63% 29.99 in - SW 10.4 mph - N/A   Unknown
10:00 PM 64.8 °F 52.3 °F 64% 29.99 in - SW 11.5 mph - N/A   Unknown
11:00 PM 64.2 °F 52.0 °F 64% 29.99 in - WSW 10.4 mph - N/A   Unknown